ATLAS 2AS CENTAUR R/B

基本信息
目录编号:
28155
目录名称:
ATLAS 2AS CENTAUR R/B
国际标识:
2004-003B
轨道中心:
EARTH
物体状态:
在轨
发射日期:
2004-02-05 UTC
国别:
美国 (US)
轨道信息
数据来源: 国际轨道数据
星历时间: 2026-07-13T21:46:10+0800
半长轴: 17618.867km
偏心率: 0.6191354
轨道倾角: 12.600°
近地点辐角: 0.227°
升交点赤经: 231.925°
平近点角: 0.053°
近地点: 332.265km
远地点: 22149.195km
周期: 387.906分钟
每日圈数: 3.712238
详细信息
发射场:
AFETR
轨道高度:
LEO
数据来源:
AOE Integration Group
参考系:
TEME
时间系统:
UTC
历元类型:
SGP4
2D轨道图
3D轨道图
轨道高度分析图
轨道倾角分析图
轨道综合分析图
查看轨道综合分析图